Location: Invercargill
(46.4000°S, 168.3500°E)
Time: 19:30:00
(UTC+12:00)

ATLAS CENTAUR R/B - Pass Details

Date: 14 May 2021
Orbit: 472 x 671 km, 64.6° (Epoch: 13 June)

Event Time Altitude Azimuth Distance (km) Brightness Sun altitude
Rises 19:04:37 0° 212° (SSW) 2,897 5.3 -17.1°
Reaches altitude 10° 19:07:21 10° 197° (SSW) 1,948 4.2 -17.6°
Enters shadow 19:10:28 23° 153° (SSE) 1,243 2.8 -18.1°
